Location: Chemnitz
(49.5500°N, 11.5830°E)
Time: 08:43:34
(UTC+01:00)

ISS - Visible Passes

Search period start: 17 February 2019 00:00
Search period end: 27 February 2019 00:00
Orbit: 403 x 411 km, 51.6° (Epoch: 17 February)

Date Brightness Start Highest point End Pass type
(mag) Time Alt. Az. Time Alt. Az. Time Alt. Az.
23 Feb -1.2 06:34:07 10° S 06:36:37 20° SE 06:39:06 10° E visible
24 Feb -0.8 05:43:50 10° SSE 05:45:21 13° SE 05:46:51 10° ESE visible
25 Feb -2.4 06:26:50 10° SW 06:29:54 38° SSE 06:32:58 10° E visible
26 Feb -1.8 05:35:48 10° SSW 05:38:31 24° SE 05:41:15 10° E visible
